Location: Berkeley
(37.8716°N, 122.2727°W)
Time: 01:45:16
(UTC-07:00)

Tiangong 2 - Pass Details

Date: 19 February 2019
Orbit: 379 x 390 km, 42.8° (Epoch: 22 March)

Event Time Altitude Azimuth Distance (km) Brightness Sun altitude
Rises 18:51:18 0° 291° (WNW) 2,254 6.2 -12.3°
Reaches altitude 10° 18:53:23 10° 290° (WNW) 1,397 5.0 -12.7°
Maximum altitude 18:56:31 73° 206° (SSW) 400 1.2 -13.4°
Enters shadow 18:58:22 22° 124° (ESE) 883 2.4 -13.7°
